Tracking 19145 objects as of 25-Apr-2018
HD Live streaming from Space Station
objects crossing your sky now

RESURS O1 DEB

Track RESURS O1 DEB now!
10-day predictions


NORAD ID: 23346
Int'l Code: 1994-074E
Perigee: 657.9 km
Apogee: 916.7 km
Inclination: 98.4 °
Period: 100.5 minutes
Semi major axis: 7158 km
RCS: 0.0836 m2 (small)
Launch date: November 4, 1994
Source: Commonwealth of Independent States (former USSR) (CIS)
Launch site: TYURATAM MISSILE AND SPACE COMPLEX (TTMTR)

Note: This is SATELLITE DEBRIS
aabbcc
Your satellite tracking list
Your tracking list is empty




NASA's NSSDC Master Catalog

Two Line Element Set (TLE):
1 23346U 94074E   18114.89605615 +.00000095 +00000-0 +43707-4 0  9996
2 23346 098.3656 235.5592 0180738 295.9865 062.2801 14.33476174224501
Source of the keplerian elements: AFSPC